BAW193 EGLL-KDFW

Flight info

Callsign BAW193
Flight time N/A
Altitude 36000
Route UMLAT T418 WELIN T420 TNT UL28 PENIL DCT DEJEM DCT OZRAT DCT WETFI DCT ASKUP DCT REVNU DCT RESNO/M084F380 NATB LOMSI/N0492F380 N668A TAFFY DCT PQI DCT CABCI/N0489F400 Q29 NIPPY DCT WILET DCT REBBL DCT LEJOY DCT EMNEM Q71 GEFFS DCT TONIO DCT ARTUR DCT NIOLA DCT VLKNN Q30 IZAAC DCT YUYUN BEREE3
Aircraft A388/J-SDE1E2E3GHIJ3J4J5J6LM1M2OP2RWXYZ/LB1D1

Departure

Time 2026-05-04 13:14
Airport London Heathrow Airport (EGLL)

Arrival

Time N/A
Airport Dallas Fort Worth International Airport (KDFW)
Time Latitude Longitude Altitude Speed Heading
2026-05-04 11:55 51.47055 -0.47485 93 ft 0 kts 269°
2026-05-04 12:56 51.47055 -0.47460 93 ft 4 kts 269°
2026-05-04 12:57 51.47055 -0.47417 91 ft 4 kts 269°
2026-05-04 12:57 51.47056 -0.47385 91 ft 4 kts 256°
2026-05-04 12:57 51.47065 -0.47360 94 ft 4 kts 217°
2026-05-04 12:57 51.47080 -0.47352 91 ft 3 kts 180°
2026-05-04 12:58 51.47106 -0.47352 92 ft 4 kts 180°
2026-05-04 12:58 51.47118 -0.47352 91 ft 0 kts 180°
2026-05-04 13:01 51.47113 -0.47352 91 ft 3 kts 180°
2026-05-04 13:02 51.47081 -0.47352 94 ft 7 kts 180°
2026-05-04 13:02 51.47021 -0.47351 91 ft 10 kts 180°
2026-05-04 13:02 51.46941 -0.47351 91 ft 13 kts 180°
2026-05-04 13:02 51.46843 -0.47351 92 ft 15 kts 180°
2026-05-04 13:03 51.46773 -0.47339 95 ft 7 kts 149°
2026-05-04 13:03 51.46751 -0.47271 95 ft 8 kts 91°
2026-05-04 13:03 51.46750 -0.47176 93 ft 9 kts 91°
2026-05-04 13:03 51.46749 -0.47065 95 ft 11 kts 91°
2026-05-04 13:04 51.46748 -0.46949 95 ft 10 kts 91°
2026-05-04 13:04 51.46747 -0.46828 95 ft 12 kts 90°
2026-05-04 13:04 51.46746 -0.46694 95 ft 13 kts 90°
2026-05-04 13:04 51.46749 -0.46551 94 ft 13 kts 88°
2026-05-04 13:05 51.46748 -0.46402 94 ft 14 kts 91°
2026-05-04 13:05 51.46747 -0.46243 95 ft 15 kts 91°
2026-05-04 13:05 51.46747 -0.46077 96 ft 15 kts 89°
2026-05-04 13:05 51.46749 -0.45906 94 ft 16 kts 89°
2026-05-04 13:06 51.46750 -0.45729 95 ft 16 kts 89°
2026-05-04 13:06 51.46751 -0.45550 93 ft 16 kts 90°
2026-05-04 13:06 51.46752 -0.45368 91 ft 16 kts 90°
2026-05-04 13:06 51.46752 -0.45229 93 ft 12 kts 90°
2026-05-04 13:07 51.46752 -0.45087 93 ft 13 kts 90°
2026-05-04 13:07 51.46753 -0.44942 91 ft 14 kts 90°
2026-05-04 13:07 51.46753 -0.44789 93 ft 14 kts 90°
2026-05-04 13:07 51.46754 -0.44626 94 ft 15 kts 90°
2026-05-04 13:08 51.46754 -0.44570 91 ft 2 kts 90°
2026-05-04 13:08 51.46754 -0.44531 92 ft 5 kts 90°
2026-05-04 13:08 51.46754 -0.44459 94 ft 8 kts 90°
2026-05-04 13:08 51.46754 -0.44361 94 ft 10 kts 90°
2026-05-04 13:09 51.46755 -0.44242 94 ft 11 kts 90°
2026-05-04 13:09 51.46755 -0.44109 94 ft 13 kts 90°
2026-05-04 13:09 51.46764 -0.43980 95 ft 11 kts 80°
2026-05-04 13:09 51.46776 -0.43851 93 ft 12 kts 91°
2026-05-04 13:10 51.46775 -0.43725 93 ft 11 kts 91°
2026-05-04 13:10 51.46774 -0.43621 94 ft 3 kts 104°
2026-05-04 13:10 51.46770 -0.43609 95 ft 0 kts 142°
2026-05-04 13:10 51.46769 -0.43608 95 ft 0 kts 144°
2026-05-04 13:11 51.46763 -0.43602 95 ft 2 kts 161°
2026-05-04 13:11 51.46742 -0.43601 93 ft 6 kts 182°
2026-05-04 13:11 51.46695 -0.43604 91 ft 1 kts 181°
2026-05-04 13:11 51.46670 -0.43605 91 ft 6 kts 181°
2026-05-04 13:12 51.46614 -0.43605 91 ft 10 kts 180°
2026-05-04 13:12 51.46544 -0.43606 92 ft 8 kts 180°
2026-05-04 13:12 51.46500 -0.43607 91 ft 3 kts 201°
2026-05-04 13:12 51.46492 -0.43620 95 ft 1 kts 253°
2026-05-04 13:13 51.46492 -0.43635 95 ft 2 kts 278°
2026-05-04 13:13 51.46493 -0.43699 91 ft 17 kts 270°
2026-05-04 13:13 51.46492 -0.44245 91 ft 88 kts 269°
2026-05-04 13:13 51.46490 -0.45598 90 ft 151 kts 269°
2026-05-04 13:14 51.46506 -0.47507 126 ft 186 kts 271°
2026-05-04 13:14 51.46453 -0.49571 702 ft 180 kts 268°
2026-05-04 13:14 51.46531 -0.51523 1389 ft 175 kts 285°
2026-05-04 13:14 51.46936 -0.53343 1893 ft 176 kts 296°
2026-05-04 13:15 51.47556 -0.55104 2125 ft 191 kts 305°
2026-05-04 13:15 51.48307 -0.56968 2282 ft 206 kts 303°
2026-05-04 13:15 51.49071 -0.59007 2386 ft 225 kts 301°
2026-05-04 13:15 51.49845 -0.61259 2687 ft 244 kts 299°
2026-05-04 13:16 51.50662 -0.63772 3045 ft 261 kts 298°
2026-05-04 13:16 51.51503 -0.66365 3775 ft 263 kts 302°
2026-05-04 13:16 51.52775 -0.68432 4447 ft 266 kts 330°
2026-05-04 13:16 51.54537 -0.69333 5157 ft 269 kts 356°
2026-05-04 13:17 51.56413 -0.69218 5788 ft 275 kts
2026-05-04 13:17 51.58340 -0.68958 6089 ft 282 kts
2026-05-04 13:17 51.60273 -0.68865 6830 ft 280 kts 358°
2026-05-04 13:17 51.62248 -0.68926 7547 ft 282 kts 356°
2026-05-04 13:18 51.64237 -0.69088 8212 ft 286 kts 355°
2026-05-04 13:18 51.66205 -0.69295 8865 ft 289 kts 354°
2026-05-04 13:18 51.68216 -0.69524 9575 ft 292 kts 354°
2026-05-04 13:18 51.70249 -0.69758 10197 ft 295 kts 354°
2026-05-04 13:19 51.72346 -0.70000 10440 ft 313 kts 354°
2026-05-04 13:19 51.73814 -0.70168 10570 ft 325 kts 354°
2026-05-04 13:19 51.76932 -0.70520 10878 ft 344 kts 354°
2026-05-04 13:19 51.79338 -0.70788 11424 ft 347 kts 354°
2026-05-04 13:20 51.81757 -0.71057 11997 ft 351 kts 354°
2026-05-04 13:20 51.84209 -0.71331 12569 ft 354 kts 354°
2026-05-04 13:20 51.86680 -0.71609 13142 ft 358 kts 354°
2026-05-04 13:20 51.89165 -0.71889 13676 ft 361 kts 354°
2026-05-04 13:21 51.91640 -0.72168 14211 ft 364 kts 354°
2026-05-04 13:21 51.94170 -0.72453 14696 ft 367 kts 354°
2026-05-04 13:21 51.96735 -0.72742 15195 ft 370 kts 355°
2026-05-04 13:21 51.99319 -0.73035 15700 ft 373 kts 355°
2026-05-04 13:22 52.01902 -0.73499 16178 ft 375 kts 348°
2026-05-04 13:22 52.04427 -0.74586 16668 ft 377 kts 340°
2026-05-04 13:22 52.06927 -0.75944 17169 ft 379 kts 341°
2026-05-04 13:22 52.09438 -0.77257 17644 ft 382 kts 341°
2026-05-04 13:23 52.11973 -0.78568 18085 ft 385 kts 341°
2026-05-04 13:23 52.14506 -0.79882 18515 ft 388 kts 341°